E9109 Weather Reports


Display with metric or nautical units.
time (UTC)temp
F
wind
direction
speed
MPH
gust
MPH
rain 1hr
in
rain 24hr
in
rain mn
in
humidity
%
barometer
mb
20231205222825 54 224 0.0 4.0 0.00 1.30 0.87 85 1016.2
20231205221808 54 173 0.0 1.0 0.00 1.30 0.87 85 1016.1
20231205220739 54 283 0.0 7.0 0.00 1.31 0.87 85 1016.0
20231205215758 54 214 0.0 5.0 0.00 1.31 0.87 85 1016.2
20231205214815 54 232 0.0 3.0 0.00 1.31 0.87 85 1016.4
20231205213835 55 238 0.0 0.0 0.00 1.30 0.87 85 1016.4
20231205210504 55 149 0.0 0.0 0.00 1.29 0.86 85 1016.8
20231205205434 55 149 0.0 0.0 0.00 1.30 0.86 85 1016.6
20231205203319 54 148 0.0 0.0 0.00 1.29 0.85 85 1016.6
20231205202338 54 148 0.0 0.0 0.00 1.29 0.85 85 1016.7
20231205200215 54 191 0.0 0.0 0.00 1.29 0.85 85 1016.8
20231205195224 55 147 0.0 0.0 0.00 1.29 0.85 85 1016.8
20231205194214 55 214 0.0 0.0 0.00 1.31 0.85 85 1016.8
20231205193204 55 214 0.0 0.0 0.00 1.31 0.85 85 1017.0
20231205192138 55 214 0.0 0.0 0.00 1.31 0.84 85 1016.9
20231205191127 55 218 0.0 0.0 0.00 1.31 0.84 85 1017.3
20231205185003 55 224 0.0 0.0 0.00 1.34 0.84 85 1017.6
20231205183948 55 224 0.0 0.0 0.04 1.33 0.83 86 1017.8
20231205183000 55 262 0.0 0.0 0.04 1.33 0.83 86 1017.7
20231205180812 54 262 0.0 0.0 0.04 1.35 0.81 86 1017.7
20231205175801 54 262 0.0 0.0 0.05 1.36 0.81 86 1017.7
20231205174742 54 262 0.0 0.0 0.05 1.36 0.80 86 1017.8
20231205173803 54 262 0.0 0.0 0.08 1.39 0.79 86 1017.8
20231205172757 54 262 0.0 0.0 0.09 1.41 0.77 86 1017.6
20231205171821 54 262 0.0 0.0 0.06 1.46 0.77 86 1017.6
20231205170801 54 262 0.0 0.0 0.06 1.47 0.76 87 1017.7
20231205165737 54 262 0.0 0.0 0.06 1.49 0.75 87 1017.6
20231205164709 54 262 0.0 0.0 0.00 1.52 0.73 87 1017.5
20231205163713 54 262 0.0 0.0 0.04 1.54 0.73 87 1017.5
20231205162733 54 262 0.0 0.0 0.04 1.54 0.73 87 1017.3
20231205161747 54 262 0.0 0.0 0.04 1.57 0.72 87 1017.0
20231205155629 53 184 0.0 0.0 0.08 1.60 0.71 87 1017.0
20231205154601 53 184 0.0 0.0 0.04 1.59 0.69 87 1017.0
20231205153543 53 184 0.0 0.0 0.06 1.63 0.69 87 1016.9
20231205151412 53 184 0.0 0.0 0.06 1.65 0.67 88 1017.0
20231205145204 53 297 0.0 0.0 0.00 1.69 0.65 88 1016.9
20231205144209 53 297 0.0 0.0 0.00 1.70 0.65 88 1016.9
20231205143207 53 297 0.0 0.0 0.04 1.71 0.64 88 1017.0
20231205142144 53 297 0.0 0.0 0.10 1.72 0.64 88 1016.9
20231205141200 53 297 0.0 0.0 0.08 1.74 0.63 88 1017.0
20231205140211 53 297 0.0 0.0 0.10 1.74 0.61 88 1016.9
20231205135204 53 297 0.0 0.0 0.08 1.77 0.60 88 1016.9
20231205134135 53 297 0.0 0.0 0.18 1.82 0.57 88 1016.9
20231205133121 53 297 0.0 0.0 0.19 1.80 0.55 88 1016.9
20231205130959 52 297 0.0 0.0 0.06 1.74 0.46 88 1016.8
20231205124833 52 297 0.0 0.0 0.17 1.72 0.43 89 1016.5
20231205123801 52 297 0.0 0.0 0.21 1.68 0.40 89 1016.4
20231205121624 52 297 0.0 0.0 0.10 1.69 0.37 89 1016.5
20231205120555 52 297 0.0 0.0 0.27 1.67 0.35 89 1016.6
20231205115614 52 297 0.0 0.0 0.09 1.65 0.33 89 1016.7
20231205114549 52 297 0.0 0.0 0.38 1.63 0.31 89 1016.7
20231205113515 52 297 0.0 0.0 0.04 1.59 0.27 89 1016.9
20231205112538 52 297 0.0 0.0 0.06 1.58 0.26 89 1016.7
20231205111537 51 297 0.0 0.0 0.06 1.57 0.25 89 1016.8
20231205110538 51 297 0.0 0.0 0.04 1.56 0.24 90 1016.9
20231205105523 51 297 0.0 0.0 0.06 1.55 0.23 90 1017.0
20231205104533 51 297 0.0 0.0 0.12 1.54 0.23 90 1017.1
20231205103528 51 297 0.0 0.0 0.10 1.53 0.21 90 1017.1
20231205102528 51 297 0.0 0.0 0.05 1.52 0.20 90 1017.2
20231205101517 51 297 0.0 0.0 0.05 1.52 0.19 90 1017.5
20231205100539 51 297 0.0 0.0 0.13 1.51 0.18 90 1017.0
20231205095559 51 297 0.0 0.0 0.20 1.49 0.16 90 1017.4
20231205094552 51 297 0.0 0.0 0.34 1.45 0.12 90 1017.5
20231205093603 51 297 0.0 0.0 0.09 1.41 0.08 90 1017.3
20231205092610 51 297 0.0 0.0 0.08 1.39 0.06 90 1017.4
20231205091544 51 297 0.0 0.0 0.06 1.38 0.05 90 1017.3
20231205090554 51 91 0.0 0.0 0.04 1.37 0.04 90 1017.5
20231205085530 51 91 0.0 0.0 0.00 1.36 0.03 91 1017.4
20231205083358 50 91 0.0 0.0 0.04 1.35 0.02 91 1017.4
20231205082338 50 91 0.0 0.0 0.08 1.35 0.02 91 1017.5
20231205081338 50 91 0.0 0.0 0.00 1.33 0.01 91 1017.8
20231205080311 50 91 0.0 0.0 0.00 1.33 0.00 91 1017.8
20231205075316 50 91 0.0 0.0 0.00 1.33 1.34 91 1017.8
20231205074300 50 91 0.0 0.0 0.00 1.33 1.34 91 1017.8
20231205073238 50 91 0.0 0.0 0.00 1.33 1.32 91 1018.0
20231205072223 51 91 0.0 0.0 0.00 1.33 1.32 91 1018.1
20231205071247 51 91 0.0 1.0 0.00 1.33 1.32 91 1018.1
20231205070248 51 277 0.0 0.0 0.00 1.33 1.32 91 1017.9
20231205065255 50 92 0.0 0.0 0.00 1.33 1.32 91 1018.0
20231205064236 50 92 0.0 0.0 0.00 1.34 1.32 91 1017.8
20231205063219 50 92 0.0 0.0 0.00 1.34 1.32 91 1017.7
20231205062231 50 92 0.0 0.0 0.00 1.33 1.32 91 1017.8
20231205061215 50 92 0.0 0.0 0.00 1.33 1.32 91 1017.7
20231205053853 50 92 0.0 0.0 0.00 1.32 1.30 91 1017.6
20231205051739 51 289 0.0 0.0 0.05 1.31 1.30 91 1017.7
20231205050737 51 288 0.0 0.0 0.05 1.33 1.30 91 1017.8
20231205045748 51 288 0.0 0.0 0.06 1.31 1.29 91 1017.8
20231205044718 51 288 0.0 0.0 0.06 1.31 1.28 91 1017.8
20231205043720 51 288 0.0 0.0 0.06 1.30 1.26 91 1017.8
20231205042717 51 288 0.0 0.0 0.04 1.28 1.26 91 1017.8
20231205041740 51 288 0.0 1.0 0.00 1.28 1.25 91 1017.8
20231205040752 51 87 0.0 0.0 0.00 1.27 1.24 91 1017.8
20231205035806 51 87 0.0 0.0 0.04 1.27 1.24 91 1017.9
20231205034806 52 89 0.0 0.0 0.04 1.27 1.24 91 1017.8
20231205032614 52 177 0.0 0.0 0.05 1.25 1.22 91 1017.9
20231205031618 52 177 0.0 0.0 0.05 1.24 1.22 91 1017.9
20231205030639 52 177 0.0 0.0 0.04 1.24 1.21 91 1017.9
20231205025609 52 177 0.0 0.0 0.00 1.23 1.20 91 1018.0
20231205024545 52 177 0.0 0.0 0.00 1.22 1.19 91 1018.0
20231205023549 52 177 0.0 0.0 0.06 1.22 1.19 91 1018.1
20231205022547 51 177 0.0 0.0 0.10 1.21 1.18 91 1018.2
20231205021530 52 177 0.0 0.0 0.06 1.19 1.17 91 1018.3
20231205020551 52 177 0.0 0.0 0.09 1.19 1.15 91 1018.3
20231205015547 52 177 0.0 0.0 0.06 1.18 1.14 91 1018.4
20231205014558 52 177 0.0 0.0 0.04 1.17 1.12 91 1018.2
20231205013602 52 177 0.0 0.0 0.06 1.17 1.11 91 1018.3
20231205012615 52 177 0.0 0.0 0.10 1.16 1.10 91 1018.3
20231205011624 52 177 0.0 0.0 0.13 1.14 1.10 91 1018.4
20231205010606 52 177 0.0 0.0 0.04 1.12 1.08 91 1018.5
20231205005629 52 177 0.0 0.0 0.06 1.13 1.07 91 1018.4
20231205004645 52 177 0.0 0.0 0.36 1.12 1.07 91 1018.4
20231205003641 52 177 0.0 0.0 0.12 1.10 1.03 91 1018.5
20231205001509 52 177 0.0 0.0 0.06 1.08 0.99 91 1018.5
20231204235331 52 177 0.0 0.0 0.09 1.06 0.97 91 1018.4
20231204234349 52 177 0.0 0.0 0.06 1.06 0.96 91 1018.4
20231204233357 52 177 0.0 0.0 0.00 1.04 0.95 91 1018.4
20231204232346 52 177 0.0 0.0 0.00 1.05 0.94 91 1018.3
20231204231409 52 177 0.0 0.0 0.00 1.05 0.94 91 1018.3
20231204230354 52 156 0.0 0.0 0.06 1.04 0.93 91 1018.3
20231204225416 51 146 0.0 0.0 0.06 1.03 0.93 91 1018.3